Theta_e
295 296 291 292 294 293 290 290 289 289 291 292 293 293 292 292 294 293 292 290 290 290 293 295 294 294 295 297 299 300 297 296 296 296 297 297 298 299 298 298 300 300 301 306 303 303 305 305 303 304 304 304 304 304 305 305 306 307 307 307 307 307 306 308 308 308 308 308 307 307 307 306 306 305 307 306 306 305 305 305 305 305 304 306 306 306
298 293 292 290 289 290 290 289 289 291 291 292 293 293 292 292 293 293 292 291 291 290 294 290 291 293 296 298 300 300 297 296 297 297 298 298 298 299 300 300 300 301 302 301 301 301 304 303 304 305 305 304 303 304 305 306 306 307 307 308 307 307 307 308 308 309 308 308 308 307 306 306 305 305 305 304 304 305 305 305 305 304 305 305 305 305
295 292 291 288 289 290 290 289 289 290 291 292 293 293 292 294 294 292 289 290 291 291 294 293 292 294 297 299 300 299 298 298 299 299 299 298 298 297 297 299 301 299 301 301 302 303 303 304 305 305 305 305 306 306 306 306 307 307 307 307 307 307 308 308 307 309 308 307 307 307 306 306 304 304 305 304 305 305 305 305 304 304 304 304 304 305
292 293 289 288 290 290 289 289 289 290 292 293 294 292 293 292 291 293 291 289 290 291 292 292 290 294 297 298 296 296 295 296 297 295 296 296 297 298 298 299 300 299 301 300 301 301 302 304 303 304 305 305 307 306 306 305 307 307 307 307 307 307 307 308 306 307 308 307 307 307 306 305 306 304 304 306 306 305 305 303 304 303 304 304 304 304
292 290 288 288 289 290 290 289 290 292 293 291 292 292 292 291 290 290 292 291 289 289 288 290 291 294 298 296 298 296 293 294 299 296 295 296 296 297 296 295 298 300 301 301 302 302 301 301 303 304 303 304 307 307 306 306 305 306 306 306 307 307 307 306 305 306 306 306 305 304 304 305 305 306 306 306 304 304 303 303 302 302 303 303 303 303
290 289 289 289 289 289 289 289 289 289 292 292 291 292 289 288 289 290 291 291 292 292 289 287 291 293 296 298 296 297 297 297 296 296 298 298 297 296 295 298 299 300 302 303 301 302 303 302 301 302 303 305 306 305 304 303 303 305 306 306 306 306 306 305 305 306 307 307 306 305 305 304 304 303 303 301 301 301 301 301 302 302 302 302 302 302
291 287 289 289 290 290 290 291 289 288 292 291 290 288 289 288 288 288 290 291 290 290 288 286 290 289 298 296 299 296 295 296 297 297 298 298 298 297 298 299 299 299 299 299 300 301 301 301 303 303 304 305 305 304 303 303 303 304 305 305 306 305 304 305 305 306 307 306 306 307 306 306 304 301 300 301 301 301 301 302 301 301 301 301 301 301
288 288 288 287 289 291 291 291 290 288 290 291 287 288 288 288 289 289 288 289 290 288 286 286 290 289 290 296 295 292 293 295 297 297 297 298 298 298 298 299 300 300 300 301 300 301 302 302 303 303 303 303 303 303 303 304 304 304 304 304 304 304 303 304 305 305 307 306 305 305 304 303 302 302 300 300 300 301 301 300 300 300 300 300 300 300
289 288 288 288 288 288 291 290 287 287 290 290 286 288 288 288 289 288 288 289 289 287 289 289 287 287 288 295 293 293 293 296 296 297 297 297 298 299 299 299 301 301 301 302 301 301 300 301 302 303 303 302 302 303 304 304 303 303 303 303 303 302 303 303 303 304 304 305 305 304 303 301 301 300 300 300 300 300 300 299 300 299 299 299 299 300
289 289 290 290 290 291 288 286 287 286 290 288 288 289 288 288 288 288 289 289 288 287 288 286 285 286 289 297 295 293 292 294 297 298 298 298 298 299 299 300 300 300 300 299 302 302 302 302 302 302 302 302 302 301 302 302 302 302 302 302 301 301 301 302 302 302 302 303 303 303 302 300 299 299 300 300 299 299 299 298 298 299 298 298 298 298
290 291 290 290 289 288 287 287 286 287 286 289 290 290 290 289 288 287 288 289 288 286 288 284 283 285 286 295 296 295 296 298 298 297 298 297 298 298 300 300 300 299 299 299 299 300 300 300 300 301 301 300 300 301 301 301 301 302 301 301 300 300 300 301 301 301 301 301 301 301 301 300 299 300 299 298 298 298 298 298 297 297 297 298 297 298
290 291 290 289 288 288 290 288 287 286 288 290 289 290 290 289 286 287 288 287 285 286 285 285 284 286 285 292 298 298 296 294 297 297 296 296 297 298 298 298 298 299 299 299 299 299 299 299 299 300 299 299 299 300 300 300 300 301 300 300 299 299 299 299 300 300 300 300 300 300 300 299 299 299 299 298 297 297 297 297 296 297 297 296 297 297
289 290 289 288 289 288 290 290 289 289 289 290 289 290 288 288 288 286 287 285 286 286 285 286 285 285 285 292 298 297 296 296 295 298 299 298 298 298 298 298 298 299 299 299 300 299 299 299 299 299 299 299 299 299 299 299 300 300 299 299 298 297 298 298 299 298 298 299 298 298 298 298 298 298 297 297 296 297 296 296 296 296 295 295 295 295
289 288 288 289 290 290 290 291 289 289 289 289 290 290 288 286 283 280 284 280 282 285 284 285 286 284 292 295 298 298 299 297 295 295 296 299 299 298 298 299 297 298 299 300 300 300 300 300 300 300 299 299 299 298 298 298 298 298 298 298 297 296 297 297 297 297 297 297 297 298 298 297 297 297 297 296 296 296 296 296 295 295 294 294 294 293
287 288 289 289 289 287 289 289 289 289 290 291 289 288 289 288 285 281 284 283 284 286 285 284 283 287 288 295 294 296 294 293 292 291 292 294 298 299 298 298 298 298 299 299 300 300 300 300 300 299 299 298 298 298 298 298 298 298 297 297 296 295 296 296 296 297 296 296 296 297 297 297 296 296 295 295 295 295 295 295 294 294 294 293 293 293
287 289 287 287 287 287 288 289 288 289 290 290 290 290 288 289 290 287 284 285 283 285 285 282 286 292 294 298 296 294 293 293 292 293 292 293 294 296 295 296 297 298 297 298 299 298 298 299 299 298 298 297 297 297 297 297 297 297 297 296 296 296 296 296 296 296 295 295 296 296 295 295 295 295 294 294 294 294 294 294 293 293 293 293 292 292
284 287 286 288 286 287 288 287 288 287 287 288 289 289 288 287 289 282 278 277 277 282 284 289 288 293 296 297 295 293 293 294 293 293 293 294 294 295 296 298 298 298 298 297 298 298 297 297 297 298 297 297 296 296 296 296 297 296 296 295 295 295 295 295 295 295 295 294 294 294 294 294 294 293 293 293 292 292 293 293 292 292 292 292 292 291
288 288 286 287 286 286 286 286 287 288 288 289 288 289 288 289 289 287 285 282 284 281 285 284 286 289 288 288 296 294 292 294 294 293 294 295 295 295 297 298 298 298 298 298 298 298 297 297 297 297 297 296 296 296 296 295 296 296 296 295 295 294 294 294 294 294 293 293 293 292 292 292 293 292 292 292 291 292 291 291 291 291 290 290 291 290
290 288 286 285 285 287 287 287 288 288 289 290 288 287 287 286 286 287 285 280 280 279 282 285 284 284 287 290 294 296 294 295 294 295 293 294 294 295 297 297 298 298 297 296 296 296 296 296 296 296 295 295 295 295 295 295 295 295 295 295 295 294 294 293 293 293 293 293 292 292 291 291 291 291 291 291 291 290 290 289 289 289 289 289 289 289
290 288 287 285 286 287 288 287 287 287 289 287 288 288 284 287 287 287 286 285 285 282 279 283 283 286 292 292 295 296 297 298 296 294 294 295 295 296 297 297 297 297 296 296 296 296 296 296 296 295 294 294 294 294 294 294 294 294 294 294 293 293 293 292 292 292 291 291 291 290 290 290 290 290 290 289 289 288 288 288 288 287 287 287 287 287
289 287 286 285 286 286 286 287 288 290 287 286 287 287 287 286 287 287 285 285 285 283 282 281 281 288 296 294 294 296 297 298 297 296 297 297 297 297 298 298 298 297 296 296 296 296 296 295 295 295 294 294 294 294 294 293 293 293 293 293 292 292 291 291 291 291 290 290 289 289 288 288 288 288 288 288 288 287 287 286 286 286 286 286 286 286
288 286 287 286 285 285 288 283 283 283 286 290 290 288 290 286 285 283 283 282 281 284 281 280 281 288 296 291 294 296 296 295 297 298 299 298 298 298 298 299 299 298 297 297 297 296 296 295 294 294 294 293 293 292 292 293 293 292 292 292 292 292 291 290 290 290 289 289 288 287 287 287 288 287 287 286 286 286 286 285 285 285 285 284 284 285
289 289 287 284 287 288 284 284 283 282 282 282 285 288 289 290 289 287 281 283 280 282 278 282 279 286 295 291 291 293 292 293 293 293 296 298 298 298 298 299 299 299 297 297 296 296 295 294 294 293 292 292 292 292 292 292 292 292 292 291 291 291 290 290 290 290 289 288 287 286 286 286 286 286 286 285 285 284 284 284 284 285 284 283 283 284
289 289 286 287 284 282 283 284 284 282 283 284 283 283 285 287 288 289 288 286 286 281 282 282 280 287 296 291 290 290 291 290 290 290 292 295 297 297 297 297 298 298 297 297 296 296 295 294 293 292 292 292 292 291 291 292 292 291 291 291 291 290 290 289 289 289 288 287 287 286 285 285 285 285 285 284 284 284 284 283 283 283 283 283 283 282
287 288 287 285 286 286 284 284 283 281 283 285 288 286 285 285 284 285 284 284 284 282 285 284 280 287 296 290 291 289 290 291 292 293 291 293 295 296 296 296 297 298 297 295 295 295 293 292 292 291 292 292 292 291 291 291 291 290 290 290 290 289 289 289 289 288 288 287 286 286 285 284 284 284 284 283 283 283 283 283 283 282 282 282 282 282
288 287 287 284 281 279 279 281 285 286 285 286 284 282 283 286 285 286 284 285 282 283 283 284 285 292 293 291 293 292 292 292 294 295 293 293 295 295 295 295 295 297 296 295 295 293 292 292 292 292 292 292 291 291 291 290 290 290 290 289 290 289 288 288 288 288 287 286 286 285 284 284 284 283 283 283 283 282 282 282 282 281 281 281 281 281
287 285 286 288 287 287 289 287 283 285 285 285 284 283 284 284 287 287 287 284 283 283 281 287 289 291 293 294 293 295 294 293 297 297 295 295 293 293 295 295 295 296 296 295 294 294 293 291 291 292 291 291 291 290 290 290 289 289 289 288 288 288 288 287 287 286 286 285 285 284 284 284 283 283 282 282 282 282 282 281 281 280 280 280 280 280
286 286 287 285 286 289 287 286 286 287 287 287 285 284 285 284 284 285 285 284 289 285 282 288 290 288 290 293 295 296 296 295 295 296 296 295 296 296 294 294 293 294 295 295 294 293 292 291 292 291 291 290 290 290 289 289 289 288 288 287 287 287 286 286 285 285 284 284 283 283 283 283 283 283 282 282 281 281 281 280 280 279 279 279 279 279
287 286 286 284 285 286 284 284 284 286 286 286 286 287 285 285 284 283 285 290 288 286 285 290 290 289 291 294 296 296 296 296 297 297 298 297 295 295 294 292 292 293 294 294 294 293 293 292 291 291 291 290 289 288 288 288 288 287 287 287 286 286 285 285 284 283 283 282 282 282 282 282 282 282 281 281 280 280 280 279 279 279 279 278 278 278
286 286 283 282 284 285 284 281 281 284 284 283 285 286 287 285 284 286 288 289 289 289 291 292 290 290 292 294 295 296 296 296 296 297 296 295 295 295 294 293 293 293 294 294 294 294 293 293 292 291 290 289 288 288 287 287 286 286 285 285 285 284 284 283 282 282 281 281 281 281 281 281 280 280 280 280 279 279 279 279 278 278 278 277 278 277
285 286 282 281 280 284 280 278 280 282 282 283 285 286 286 286 285 286 287 288 288 287 289 290 289 288 293 296 296 297 297 296 295 294 295 296 297 296 295 294 294 293 294 294 294 294 294 293 292 291 290 289 288 287 286 286 286 285 284 284 283 283 283 282 281 281 281 280 280 280 280 279 279 279 279 279 278 278 278 278 278 277 277 276 277 276
284 284 280 281 282 283 277 279 279 279 279 279 280 283 284 283 282 284 283 286 286 285 287 285 284 286 292 296 295 295 295 295 294 294 295 295 295 295 294 294 294 294 294 295 295 294 293 292 291 290 289 288 288 287 286 285 284 284 283 283 282 282 282 281 281 280 280 279 279 279 278 278 278 278 278 278 277 277 277 277 277 276 276 275 275 276
284 284 282 282 281 281 278 276 279 278 277 280 283 286 285 285 286 286 287 287 288 290 286 284 286 292 295 295 292 293 293 293 293 294 295 295 296 295 295 294 295 295 295 295 295 294 293 292 292 291 290 289 287 286 285 285 283 283 282 282 281 281 280 280 280 279 279 278 278 278 278 278 277 277 277 277 276 276 276 276 276 275 275 275 275 275
280 283 283 282 280 280 277 275 277 279 277 280 292 292 292 287 285 284 284 285 287 289 289 291 293 295 295 294 292 293 294 293 293 295 296 295 296 296 295 295 295 296 296 295 296 295 294 294 292 291 290 289 287 286 285 284 283 283 282 281 280 279 279 279 279 278 278 278 277 277 277 277 277 276 276 276 276 276 275 275 275 275 275 275 275 274
281 281 283 278 280 280 276 274 279 274 277 289 284 284 284 286 288 288 288 289 289 289 290 290 291 292 293 295 295 295 295 293 291 291 292 293 294 294 295 295 295 295 295 295 295 295 294 293 292 291 289 287 286 285 284 283 282 281 280 280 279 279 278 278 278 278 277 277 277 276 276 276 276 276 275 275 275 275 275 274 274 274 274 274 274 274
281 283 279 277 279 279 278 278 270 277 285 287 289 286 285 284 284 283 284 287 288 289 290 289 290 292 293 294 294 294 292 291 291 292 292 293 294 293 294 294 295 295 295 295 295 295 295 293 292 290 289 287 285 283 283 282 281 280 279 279 278 278 278 277 277 277 277 276 276 276 276 276 275 275 275 274 274 274 274 274 274 273 273 273 273 273
284 283 282 282 278 278 279 276 280 284 284 288 288 286 284 286 283 284 284 289 289 289 289 288 290 291 292 293 293 292 290 290 290 292 296 295 295 294 293 294 296 297 297 297 296 296 296 295 293 291 289 285 284 282 282 281 280 279 278 277 277 277 277 277 276 276 276 276 276 276 276 275 275 274 274 274 273 273 273 272 272 272 273 272 272 272
282 284 283 282 280 281 279 278 278 277 275 282 288 286 285 285 288 288 286 286 290 291 291 289 289 290 291 292 291 290 289 289 290 293 298 296 295 296 294 295 296 296 295 295 296 295 295 293 290 287 286 284 282 282 281 280 279 278 277 277 277 276 276 276 276 276 276 275 275 275 275 275 274 274 273 273 273 272 272 272 272 272 272 271 271 271
276 280 281 283 281 277 275 274 273 273 280 288 285 286 285 283 286 286 285 284 293 292 291 290 290 291 292 291 291 288 289 287 289 294 299 297 294 293 293 294 293 292 292 292 292 292 292 291 289 286 284 282 281 281 280 279 278 277 276 276 276 276 275 275 275 275 275 275 275 275 274 274 274 273 273 272 272 272 271 271 271 271 271 271 271 270
278 279 281 277 274 278 276 273 276 278 280 286 285 285 286 285 285 287 281 283 295 289 292 290 291 292 292 292 291 289 290 288 291 295 293 291 288 289 289 290 290 289 289 289 290 291 289 286 283 282 282 281 281 280 279 279 278 277 276 276 275 275 275 275 275 275 275 274 274 274 273 273 273 273 272 272 271 271 271 271 270 270 270 270 270 269
277 276 278 278 280 279 278 279 280 281 285 288 287 285 284 285 287 282 279 288 292 291 289 292 293 294 294 290 290 289 292 295 296 293 286 287 287 289 287 287 288 288 288 287 286 286 285 283 283 282 281 281 280 279 279 278 277 276 276 275 275 275 275 275 274 274 274 274 273 273 272 272 272 271 271 271 270 270 270 270 269 269 269 269 269 268
273 272 273 274 276 278 279 277 279 282 287 290 287 288 287 286 281 282 291 294 293 291 289 292 293 293 292 291 291 294 296 296 293 286 288 287 289 289 288 287 287 287 287 287 285 285 283 281 281 280 279 279 279 278 278 277 277 276 275 275 274 274 274 273 273 273 273 272 272 271 271 271 271 270 270 270 270 269 268 268 268 268 268 268 267 266
279 276 275 275 276 275 272 275 275 274 285 290 287 286 285 284 289 293 292 291 291 292 290 289 291 293 291 291 293 295 294 293 291 291 289 288 287 287 287 287 287 286 285 284 283 283 281 280 279 279 279 278 278 278 278 277 276 275 275 274 274 273 273 273 272 272 271 271 270 270 270 269 269 268 268 268 268 267 266 266 266 267 267 266 265 264
284 280 276 276 281 279 276 273 275 285 287 290 289 287 288 289 295 290 295 295 291 291 291 293 290 291 291 293 293 292 292 291 291 291 289 287 287 287 287 287 287 286 285 284 283 283 280 280 279 279 278 278 278 278 278 277 275 275 274 273 273 272 272 271 271 271 270 269 269 269 268 268 267 267 267 267 267 266 265 265 265 266 266 265 264 263
285 285 285 282 283 281 280 282 287 286 287 291 292 294 294 292 294 292 291 292 291 292 290 292 294 292 290 290 291 291 290 291 291 292 290 290 288 287 286 287 286 286 284 283 281 281 280 279 279 278 278 278 278 278 277 277 275 273 272 272 272 271 271 270 270 269 269 268 268 267 266 266 266 266 266 266 266 265 264 264 264 264 264 263 263 263
285 287 282 284 284 286 288 288 290 287 284 287 291 294 294 293 293 292 291 291 292 293 293 292 294 294 291 289 289 290 290 291 292 291 290 289 289 288 287 287 286 285 284 283 281 279 279 279 279 278 277 277 277 277 276 275 273 271 271 271 271 271 270 270 269 268 267 267 266 266 265 264 264 264 265 265 264 263 263 263 263 263 264 262 262 262
284 283 284 284 284 283 283 289 287 288 288 287 290 291 293 293 292 290 290 291 292 293 292 291 291 291 291 290 289 291 291 292 291 291 290 290 288 287 286 286 286 284 283 281 281 279 279 278 277 277 276 275 276 274 273 272 272 271 271 270 270 270 269 268 267 266 265 265 265 265 264 264 263 263 263 263 263 262 262 263 263 262 262 261 260 260
282 286 285 285 284 284 285 287 286 290 290 290 289 290 290 291 292 292 291 291 292 291 291 290 290 289 290 289 290 290 290 292 291 290 291 289 288 287 286 286 285 283 282 282 280 279 279 278 277 276 275 274 273 272 271 270 269 269 269 269 268 268 267 266 265 265 264 264 264 264 264 263 262 262 262 262 262 261 262 262 262 261 261 260 260 259
285 285 281 284 283 285 288 289 288 288 289 289 289 288 290 291 291 291 291 291 291 290 290 290 290 290 291 291 291 290 289 290 290 290 290 290 288 287 286 286 284 283 282 280 279 278 278 278 277 276 274 272 271 270 268 268 268 267 267 267 267 267 266 265 264 264 264 263 263 262 262 262 262 261 261 262 262 262 261 260 261 261 262 263 262 261
285 282 284 281 281 282 283 286 288 284 284 289 292 292 291 291 290 290 290 290 290 290 290 290 290 291 290 290 290 290 289 289 290 290 289 289 288 287 286 285 283 282 281 280 279 278 278 277 275 273 271 270 269 267 267 266 266 267 267 267 266 266 264 263 263 263 262 262 262 262 261 261 261 261 260 260 260 260 260 263 262 262 261 260 262 263
285 286 285 282 283 283 288 290 291 290 290 291 292 293 292 293 291 290 289 289 290 290 290 290 289 289 289 289 289 288 288 288 289 289 288 287 287 287 286 284 282 280 280 279 277 277 277 276 274 272 269 268 266 266 265 265 265 265 265 265 265 265 263 263 262 262 262 261 261 261 261 261 260 260 260 260 259 259 259 259 261 264 263 262 261 261
Wind_Speed
3 3 2 2 0 2 3 1 2 2 3 2 2 1 2 3 5 2 1 3 0 3 10 8 9 13 16 16 15 8 6 7 10 11 10 9 8 8 7 7 7 7 7 3 1 2 1 1 1 1 3 5 5 4 5 5 4 3 2 3 3 2 1 1 2 2 2 2 3 2 2 3 3 4 4 5 5 5 5 5 5 5 5 5 5 5
2 1 2 2 2 2 3 2 0 1 2 2 1 2 3 3 4 3 1 1 1 3 3 2 8 15 17 16 15 7 6 12 12 11 11 10 9 7 8 8 8 7 1 2 4 4 3 3 2 3 3 6 7 4 4 4 3 3 2 2 3 2 2 1 0 1 1 1 2 1 3 3 3 3 3 4 4 4 4 5 6 5 6 6 6 6
1 3 3 4 4 5 4 1 2 3 1 1 3 1 3 2 5 1 1 1 1 2 7 3 10 16 18 16 13 11 11 9 6 6 5 5 7 7 7 7 6 5 6 6 6 6 6 4 3 3 4 3 3 4 3 3 3 3 3 3 2 2 1 2 1 0 1 1 1 1 3 2 5 4 4 4 4 4 5 6 6 6 6 7 6 7
2 2 4 4 3 3 2 0 2 1 1 1 2 3 3 2 2 2 3 2 2 2 6 9 12 14 15 8 8 5 5 4 3 4 6 5 6 6 8 7 8 9 9 10 10 10 7 5 5 4 4 3 3 3 3 3 3 2 2 2 2 3 2 2 2 2 2 2 2 2 2 3 3 4 4 4 5 5 6 7 7 7 7 7 6 7
1 3 1 3 2 1 2 1 4 3 3 1 2 2 2 2 2 3 2 4 2 1 2 11 10 8 3 2 2 3 1 3 3 3 5 6 6 3 2 1 4 9 10 10 10 9 8 7 5 4 2 2 3 3 3 2 1 1 2 3 3 3 3 2 2 2 2 3 3 4 4 5 5 3 3 3 5 5 6 6 7 7 7 7 7 7
2 2 3 3 1 1 2 2 3 1 3 1 4 2 1 2 2 3 4 7 2 1 1 6 7 3 0 4 4 2 2 4 3 4 7 6 5 5 6 6 5 3 2 7 11 10 8 6 5 4 4 4 4 3 2 1 1 2 3 4 4 4 3 3 2 1 1 2 4 6 5 5 4 4 3 4 4 5 5 6 5 7 8 7 7 8
2 2 1 2 3 2 3 3 1 2 1 2 2 2 2 1 1 1 4 2 3 3 2 2 3 7 2 6 2 0 3 6 3 5 5 5 5 6 6 6 6 8 7 2 2 4 7 6 6 5 5 4 4 3 2 2 3 4 4 4 4 4 4 3 3 1 3 4 4 4 4 4 4 6 5 4 4 4 5 5 6 6 8 8 8 8
4 2 2 1 2 3 2 3 4 4 1 1 2 3 2 2 1 1 1 1 3 1 1 0 1 4 11 4 3 2 4 6 6 7 6 6 6 7 6 6 6 7 8 7 8 7 6 6 7 8 5 4 4 3 3 4 4 5 5 5 5 4 4 4 3 3 3 5 5 6 6 6 6 6 6 5 5 5 5 6 6 6 7 8 8 8
1 4 4 4 1 1 2 2 3 0 2 2 3 1 1 0 1 2 1 2 1 2 2 2 1 2 4 4 3 1 5 8 10 9 9 7 7 7 7 6 6 6 6 7 8 9 8 7 5 5 5 5 5 4 5 5 4 5 5 5 6 6 6 5 5 5 5 4 5 6 6 8 6 6 6 5 5 5 5 7 6 7 7 7 9 9
1 1 2 1 2 3 3 2 2 1 2 2 4 3 4 3 3 1 1 2 2 1 3 2 2 3 7 3 1 2 3 9 8 8 8 8 7 7 7 7 6 5 4 3 5 7 5 5 5 5 6 6 5 5 5 6 5 5 5 6 8 7 6 5 6 7 7 6 6 7 7 9 7 6 5 5 5 5 5 7 7 6 7 6 7 8
1 1 1 0 2 2 4 3 1 1 1 4 4 2 2 1 0 0 1 1 1 3 1 2 1 3 4 4 3 3 4 3 2 3 4 4 4 4 5 7 7 7 7 6 5 5 6 4 6 6 7 7 6 5 6 5 5 5 6 7 9 7 6 6 7 7 8 6 6 7 7 8 9 7 6 6 6 5 5 7 7 7 6 6 6 7
1 1 1 1 1 1 1 4 1 1 1 2 1 2 2 2 2 1 1 2 2 1 4 1 1 2 3 3 3 5 1 3 4 7 10 10 10 8 7 6 7 7 7 7 7 7 8 7 6 6 8 8 8 7 6 6 5 6 6 7 10 8 7 7 7 7 7 7 8 7 7 8 7 6 6 7 7 6 7 6 7 6 6 6 6 7
2 2 1 2 2 2 2 3 3 2 2 2 1 2 2 1 1 2 2 3 2 1 2 2 2 2 11 14 8 1 5 6 6 5 6 11 10 9 8 7 6 5 7 8 7 8 8 8 9 8 8 8 8 7 7 7 6 6 7 8 10 9 7 7 7 8 8 7 7 7 7 7 6 7 7 7 7 6 6 6 6 6 6 6 6 7
1 3 1 1 2 3 3 4 3 2 4 2 2 0 1 2 0 2 1 0 3 2 1 3 1 5 9 10 10 15 7 2 2 5 5 4 8 10 9 7 6 5 7 7 8 7 8 8 8 8 8 8 7 8 7 7 6 6 6 7 9 9 7 7 8 8 8 8 7 6 6 6 6 6 6 6 7 6 6 6 6 6 6 7 7 7
2 2 5 8 3 2 4 2 3 3 4 2 3 1 2 1 2 2 1 3 2 1 2 2 1 3 2 1 2 1 3 3 3 3 3 4 2 3 3 4 5 6 6 5 6 7 8 7 8 7 7 7 7 8 8 7 7 7 7 8 10 10 8 8 8 8 8 7 7 6 6 6 6 6 6 6 6 6 7 7 7 7 6 6 6 7
4 3 3 3 2 0 3 1 0 1 1 1 0 1 2 2 1 3 2 1 1 2 3 3 5 2 5 3 3 2 4 4 2 2 1 4 3 4 5 6 6 6 7 5 6 6 6 6 7 6 6 6 7 8 7 8 7 7 8 8 9 9 9 8 8 8 7 7 7 7 8 7 7 6 6 6 6 6 7 7 7 7 6 6 6 7
1 3 3 1 1 1 1 0 2 2 1 2 2 2 1 2 1 4 2 3 1 1 5 1 7 6 6 10 1 2 2 4 2 3 4 6 6 6 6 6 7 6 7 7 7 7 8 7 7 7 7 7 7 7 7 8 7 9 9 9 10 9 9 9 8 8 8 8 8 8 7 7 7 6 7 7 9 8 8 7 6 6 7 7 7 7
1 1 1 1 3 1 1 1 2 2 3 1 2 2 2 1 3 1 2 1 1 2 3 2 5 7 5 5 2 1 1 4 4 5 6 6 6 8 8 7 8 7 7 7 7 7 8 8 9 8 7 8 8 8 8 8 8 7 7 10 11 10 11 9 9 9 8 9 9 8 8 7 7 7 7 7 8 8 8 7 6 6 6 6 6 6
0 3 3 1 2 2 1 2 3 1 2 3 2 1 2 1 2 1 0 2 2 3 4 4 5 7 6 9 3 4 3 6 7 7 6 9 9 10 9 9 7 6 6 7 8 8 8 8 9 9 10 9 8 8 8 8 7 7 8 8 8 10 10 10 8 8 7 7 6 6 7 7 7 7 7 7 8 7 7 7 6 7 6 6 6 6
1 2 1 0 1 1 2 1 3 4 2 2 1 1 0 2 2 2 0 1 0 3 2 3 3 8 6 5 5 6 5 4 8 8 12 13 13 11 10 10 10 9 8 8 9 9 9 10 10 11 11 11 11 10 9 9 7 8 8 9 9 9 9 9 10 9 9 8 7 8 8 7 7 7 7 7 8 7 7 7 7 7 7 6 6 7
1 1 2 3 3 1 4 7 5 6 7 3 2 2 2 0 1 1 0 2 2 2 1 3 5 5 3 4 5 7 5 5 9 12 11 11 12 12 11 10 10 10 10 10 10 10 10 10 10 9 9 9 9 8 9 8 9 8 8 9 9 11 10 10 9 9 8 8 9 9 9 8 8 8 8 8 8 8 8 7 6 6 6 5 6 7
1 1 2 4 3 4 2 5 3 4 4 1 5 5 7 7 3 2 4 2 1 2 3 2 7 8 5 5 7 5 2 2 6 7 8 11 12 12 10 10 10 10 11 11 11 10 10 10 9 9 8 8 8 9 10 9 8 9 9 9 9 9 9 10 9 9 9 8 8 9 9 8 8 8 7 9 8 8 7 7 6 6 6 7 7 7
2 1 0 2 4 1 3 3 2 2 1 0 3 1 1 1 1 2 4 2 0 1 3 1 2 8 1 2 3 4 2 3 3 4 8 7 9 10 8 8 8 9 11 11 11 10 10 10 10 10 11 11 11 10 10 9 9 9 10 10 9 10 10 9 9 9 8 9 9 10 9 8 8 8 9 9 8 8 8 6 6 5 6 7 7 7
2 2 1 2 2 1 2 1 1 0 2 2 3 1 2 5 3 2 1 1 2 3 2 2 2 10 1 1 2 2 4 5 4 5 8 7 6 7 8 8 10 10 9 8 8 8 9 9 10 10 12 12 11 11 11 10 9 9 9 9 10 11 11 10 9 9 9 9 10 10 9 9 9 9 9 9 8 9 7 6 6 5 6 6 6 7
3 2 1 2 2 1 2 2 1 1 1 4 2 4 3 3 3 2 3 0 2 7 3 3 6 10 2 1 2 2 4 7 8 6 7 8 7 6 7 7 7 9 9 11 12 11 10 10 12 12 11 11 11 10 10 10 10 10 10 10 10 11 11 10 9 9 9 10 11 10 10 10 9 9 9 9 8 9 8 7 6 5 6 6 7 7
1 0 4 4 4 3 3 2 1 3 6 4 2 2 5 8 7 4 3 3 5 1 4 4 9 12 3 2 4 5 4 7 7 6 5 7 7 7 6 7 8 10 12 12 11 11 14 13 10 10 11 10 10 10 10 10 10 10 10 10 10 11 11 10 9 9 9 9 10 10 10 10 9 10 10 9 9 8 7 6 6 6 6 6 8 8
1 1 3 4 5 8 3 2 1 2 5 5 4 7 7 7 3 2 2 2 9 4 7 14 13 12 14 11 8 8 5 7 6 4 6 6 8 8 7 7 8 10 11 14 14 11 8 9 13 13 12 10 11 11 10 11 11 11 10 11 10 10 10 10 10 9 9 9 9 9 9 9 9 9 9 8 8 7 7 7 7 7 7 6 7 8
1 2 8 8 11 9 3 1 3 4 2 3 4 6 8 10 10 11 10 8 7 4 11 13 8 10 22 23 12 12 8 6 6 7 5 5 6 7 8 8 7 7 8 8 10 13 15 16 14 14 14 13 12 11 10 10 10 11 10 11 10 10 10 9 10 10 9 9 9 9 9 9 9 9 9 8 8 7 7 7 7 7 6 6 7 7
1 3 1 4 9 5 2 3 1 3 5 3 7 7 10 13 11 14 15 10 11 9 15 5 9 12 18 19 14 6 6 9 10 10 7 5 2 3 5 8 10 12 13 14 15 15 15 16 17 16 15 14 13 13 12 10 10 10 9 9 10 10 10 10 11 10 10 9 9 9 9 9 8 8 8 8 8 8 7 7 7 7 6 6 7 6
1 4 1 1 5 6 1 3 1 6 3 4 10 13 12 12 16 17 17 13 14 17 17 17 7 15 19 20 19 3 4 7 10 6 6 8 8 6 6 8 11 12 14 16 18 18 18 17 15 15 14 14 15 14 13 12 12 11 12 11 11 11 10 10 11 11 10 10 9 8 8 8 8 8 8 8 8 7 7 7 7 7 7 7 6 6
2 2 5 1 1 4 3 3 2 3 3 8 12 14 12 9 11 17 11 9 8 14 18 16 11 16 23 22 18 3 2 4 6 11 14 13 10 9 8 9 10 12 14 16 16 16 15 14 13 13 14 15 16 16 14 13 12 12 12 12 12 11 11 10 11 10 9 9 8 9 9 8 8 8 8 7 7 7 7 7 6 6 7 7 6 6
1 1 3 1 2 3 3 1 3 1 3 6 15 17 11 12 11 13 12 14 14 17 13 1 8 17 22 18 2 8 8 8 12 12 10 10 11 10 10 11 11 12 14 15 15 13 13 14 15 16 17 17 17 16 15 14 14 13 13 12 12 11 10 9 9 9 9 9 9 9 9 8 9 8 8 7 7 7 6 6 6 6 6 6 6 5
4 3 2 2 2 5 1 2 2 1 2 5 16 24 20 16 15 2 10 4 19 18 7 9 17 18 20 2 2 7 7 7 7 7 8 10 11 10 11 13 13 12 13 14 15 16 17 18 18 19 17 15 16 16 15 15 14 14 13 13 12 11 11 10 10 10 10 10 10 10 9 9 9 9 8 7 7 6 6 6 6 6 6 6 5 5
2 3 1 1 2 1 1 4 2 2 3 11 2 1 8 14 17 17 13 18 19 13 16 16 15 12 11 5 9 12 6 4 4 7 8 9 9 8 11 12 12 12 11 12 14 16 17 15 13 14 15 15 14 14 13 13 13 12 12 13 12 13 12 12 11 11 11 11 10 10 10 10 9 9 8 8 7 7 7 6 6 6 5 5 5 5
4 3 2 0 1 1 0 2 5 8 14 8 3 2 3 3 9 17 15 10 12 17 20 18 21 21 20 12 9 8 5 3 1 9 13 10 9 11 12 11 12 13 12 12 14 15 15 16 15 14 14 15 16 14 14 13 12 12 13 13 14 12 13 12 12 11 11 11 11 10 10 10 9 9 9 8 8 7 7 7 6 6 5 5 5 5
6 6 3 1 1 1 0 2 4 5 3 9 11 4 2 2 1 3 11 17 14 14 20 22 26 21 16 13 9 1 3 4 6 10 14 14 11 13 12 13 15 12 12 13 15 16 16 17 19 19 18 15 14 14 14 14 13 14 14 13 13 13 12 12 12 12 11 11 11 11 10 10 10 9 9 9 8 8 8 7 6 6 6 5 5 4
5 3 2 3 2 4 2 3 13 8 17 12 14 7 9 9 8 8 8 6 16 18 18 21 18 13 15 14 11 2 2 1 5 12 10 12 12 13 16 16 14 12 11 11 11 13 14 15 15 14 12 13 14 14 15 14 14 14 14 14 12 13 12 12 12 12 12 11 11 10 10 9 9 9 9 9 8 8 7 7 7 6 5 5 5 5
1 6 1 3 3 2 5 8 5 4 9 3 10 3 2 3 4 3 2 9 7 15 17 16 18 17 12 12 6 2 3 3 5 6 8 4 7 9 10 11 11 8 6 6 4 5 5 5 6 8 11 13 14 14 13 14 15 14 14 14 13 13 12 12 12 11 11 11 10 10 10 9 9 8 8 8 8 8 7 6 5 5 4 5 5 5
3 3 1 6 3 3 2 5 5 5 6 3 3 4 1 2 4 6 1 10 8 18 15 14 14 12 11 10 4 7 4 3 7 4 5 5 3 3 6 6 6 6 5 6 6 6 7 9 11 13 13 14 16 15 14 15 16 14 14 13 13 13 13 12 11 11 11 11 10 9 9 9 8 8 7 7 7 7 7 6 5 5 4 4 4 4
4 1 2 2 4 7 3 3 10 7 9 7 8 5 5 4 3 1 6 10 2 6 9 12 14 12 11 8 8 7 6 5 9 4 3 1 1 2 3 4 4 5 5 4 4 5 6 9 12 13 16 18 17 15 17 16 15 14 13 13 13 13 12 11 11 11 10 10 10 9 9 8 8 7 7 7 7 7 6 5 5 5 4 4 3 3
4 2 4 12 7 2 6 10 6 5 6 9 7 6 4 5 3 1 9 14 4 6 7 11 13 9 7 8 9 7 10 11 11 2 3 1 2 3 3 3 4 4 5 5 5 7 7 8 10 13 14 12 14 15 15 14 14 13 12 12 12 12 11 11 11 11 11 10 10 9 9 8 8 8 7 7 7 7 6 5 5 5 5 4 4 4
1 2 1 4 6 13 9 8 11 7 4 8 2 9 7 5 4 14 9 3 9 6 6 7 7 8 9 13 9 9 10 10 5 1 4 4 4 3 1 2 2 3 3 4 8 9 7 8 8 9 10 9 13 14 13 13 12 11 11 12 12 11 11 12 12 11 11 11 11 10 9 9 8 7 6 6 6 7 6 5 5 4 4 4 4 4
12 10 7 8 4 2 0 8 4 12 3 14 13 6 3 5 10 3 2 2 2 5 10 9 8 7 9 8 13 14 12 7 6 6 4 4 4 5 4 5 6 6 7 8 9 8 9 9 10 11 11 11 13 12 12 13 12 12 12 11 12 12 12 12 12 12 11 11 11 10 10 9 8 7 5 5 6 6 6 5 5 5 5 5 4 4
9 3 2 5 8 7 8 10 12 9 5 15 18 11 12 17 7 4 5 4 2 4 10 8 8 9 10 12 12 12 11 9 9 10 5 5 5 5 5 6 6 6 6 6 8 10 10 10 10 10 11 11 12 11 12 13 12 12 12 13 12 12 12 12 12 12 11 10 10 10 9 8 8 7 6 6 6 6 6 6 5 5 4 4 4 3
17 13 8 6 7 9 10 12 5 1 7 14 20 14 14 23 18 4 1 1 4 5 4 3 7 9 11 9 8 7 6 10 12 7 6 7 7 8 9 9 9 9 9 10 10 10 10 10 12 11 12 12 13 11 11 11 12 13 13 12 13 13 13 12 12 11 10 10 9 9 8 8 7 7 6 6 6 6 5 5 5 4 4 4 2 3
1 10 5 1 5 5 14 5 3 4 5 11 12 14 10 4 7 6 7 6 6 6 6 7 7 6 5 5 5 6 9 11 11 8 8 7 7 7 7 7 8 8 8 9 10 11 10 10 12 13 14 13 13 11 10 8 10 11 11 12 12 12 12 11 11 10 10 9 9 9 8 8 7 6 6 5 5 5 4 5 4 4 4 4 3 2
7 4 3 7 1 2 14 8 17 20 8 11 17 19 14 8 4 2 5 10 10 8 8 9 9 9 5 6 9 12 14 11 9 10 9 6 6 8 9 9 10 11 12 12 12 13 12 13 13 14 15 15 13 10 9 10 9 10 11 11 11 10 10 10 10 10 9 9 9 8 8 8 6 6 6 5 5 4 4 4 4 4 4 4 3 2
4 10 9 12 3 10 24 6 9 10 11 13 11 7 9 12 13 13 11 10 11 9 7 9 6 8 6 8 12 11 13 12 10 11 11 8 6 7 9 10 11 10 11 11 13 14 13 14 15 15 14 13 11 10 9 9 9 9 9 9 9 10 10 10 9 10 9 9 8 7 7 7 8 7 5 5 5 5 4 4 4 4 4 4 4 4
5 12 5 7 11 19 20 16 10 8 15 17 10 8 8 8 10 14 15 14 13 13 14 12 11 13 10 14 9 9 12 13 11 10 11 8 6 7 9 9 11 12 12 13 14 14 14 15 14 14 13 11 10 10 9 9 8 9 10 9 9 10 11 9 10 9 10 8 7 7 6 6 6 5 6 6 4 3 4 4 3 4 3 3 4 4
8 7 5 3 9 12 15 15 9 7 13 15 12 12 15 17 15 16 14 12 11 13 14 15 14 11 11 11 10 9 12 11 10 8 10 9 7 8 8 9 10 11 12 12 11 13 12 12 11 12 11 10 9 9 10 10 9 8 8 8 9 9 10 10 9 9 8 7 7 7 7 7 6 5 4 5 4 5 1 3 8 4 4 3 2 6
13 14 9 10 12 14 18 19 9 12 16 19 12 4 9 9 8 10 13 13 12 11 10 9 11 10 8 9 7 9 11 10 10 5 7 7 6 6 7 10 10 11 11 13 13 13 12 12 13 13 10 10 9 9 9 9 8 8 7 7 7 8 9 10 8 7 8 7 7 8 6 6 6 5 5 4 5 3 4 3 2 6 6 4 5 3
Wind_Direction
294 174 192 200 215 73 49 44 341 343 328 98 80 188 247 266 271 104 134 62 270 272 245 257 269 273 272 268 269 244 176 229 243 242 237 231 228 224 218 214 212 210 213 85 179 192 213 170 171 124 133 127 125 132 149 147 136 123 135 157 139 121 169 197 165 173 190 179 148 146 111 99 87 89 94 68 55 50 43 23 20 17 17 7 3 4
255 221 240 76 60 64 77 87 42 251 323 292 163 233 228 198 278 90 90 64 196 320 286 138 280 272 263 267 265 238 191 244 235 232 231 230 221 218 211 209 205 206 139 214 195 177 167 159 148 147 146 151 140 137 151 141 121 122 147 138 122 142 136 111 5 108 166 50 20 55 86 87 78 73 65 63 53 51 48 34 28 24 20 17 18 11
176 228 77 72 87 95 84 90 300 279 189 78 260 207 271 221 280 215 83 130 210 332 278 13 307 284 278 272 272 253 240 244 235 239 231 225 220 211 203 205 186 173 190 170 167 148 153 146 151 150 136 114 101 129 127 109 141 138 140 120 125 109 128 106 76 271 96 90 65 42 91 90 101 71 76 76 67 58 57 45 37 29 26 23 25 18
219 147 98 90 128 112 95 171 249 152 130 219 179 211 269 41 314 270 134 26 165 268 306 323 302 281 280 277 267 278 242 255 249 251 253 240 236 219 204 195 184 186 171 175 166 164 157 155 158 149 143 132 141 143 138 130 126 128 123 116 120 116 107 109 69 42 64 61 73 68 83 79 64 102 119 99 78 66 58 52 41 35 27 26 28 23
313 45 48 134 85 343 174 164 207 206 216 167 268 265 257 206 166 263 8 312 214 249 253 280 255 261 251 290 249 116 164 276 239 229 244 237 240 278 344 290 219 183 175 166 159 154 157 161 162 153 133 154 150 129 109 103 113 104 109 109 110 103 94 80 77 85 127 138 131 119 115 125 122 132 122 110 74 58 57 54 41 34 29 30 30 26
109 75 138 139 134 188 200 185 220 251 250 181 217 263 25 82 251 269 310 327 269 222 129 353 320 282 200 266 253 167 247 233 178 237 222 203 198 204 217 201 183 223 226 164 165 162 154 147 145 149 163 151 131 121 77 61 96 118 114 114 112 104 94 86 78 88 154 148 154 167 161 152 135 94 68 56 51 50 48 51 54 45 36 34 35 32
61 137 242 163 192 186 247 264 116 187 251 264 122 154 115 132 118 294 320 285 276 280 69 274 305 292 235 260 228 188 282 258 199 229 208 180 187 196 202 181 179 182 180 201 98 133 154 160 153 154 152 136 127 96 103 114 106 103 101 98 96 97 91 70 75 105 128 106 89 84 81 83 97 105 81 75 74 79 71 69 60 54 44 38 40 37
129 132 144 124 176 201 213 234 173 206 261 245 66 143 148 155 213 18 309 234 281 320 247 5 307 272 300 284 52 348 287 263 239 217 204 190 189 195 191 185 179 179 178 171 173 171 164 160 166 155 135 129 111 113 125 117 116 110 106 103 97 91 85 74 79 76 80 110 105 103 95 86 86 91 103 95 87 80 81 74 65 62 54 45 41 41
218 146 189 152 190 214 223 21 71 36 269 23 154 281 155 355 85 131 260 263 290 333 263 137 346 247 244 254 127 4 276 244 234 214 201 192 189 187 188 183 184 180 176 172 166 171 171 168 160 138 132 114 116 125 128 124 116 111 105 101 95 88 84 76 73 84 72 88 108 107 107 101 95 101 101 98 92 87 81 79 69 64 61 54 47 42
306 350 199 349 181 225 80 46 13 307 246 120 133 104 92 96 83 270 256 244 208 262 262 125 331 256 275 276 260 73 280 263 237 207 199 189 182 186 183 178 175 162 149 172 160 149 141 135 132 116 115 117 106 107 111 114 117 113 109 103 96 87 84 82 84 88 88 90 98 101 105 112 113 111 104 97 92 88 85 79 73 68 62 56 53 46
4 127 250 106 249 28 120 57 358 2 347 126 168 161 126 131 132 207 277 287 235 233 193 100 292 290 299 279 258 195 235 265 214 179 190 182 192 196 187 175 172 170 165 162 149 132 124 116 129 137 125 118 117 117 123 117 115 114 110 108 95 90 91 87 87 90 91 86 90 97 103 108 113 111 113 109 96 93 87 82 75 72 66 60 57 52
162 157 202 85 111 139 139 110 110 279 85 232 224 253 235 176 186 191 174 218 242 245 97 346 22 287 241 270 206 235 140 225 237 221 193 194 192 184 182 180 171 168 161 153 148 141 140 137 138 139 130 132 130 129 124 120 116 114 113 113 104 96 93 92 93 93 89 90 87 90 99 102 102 109 111 107 104 95 92 88 85 78 75 68 61 55
214 185 60 31 181 236 212 170 134 166 216 235 231 227 288 299 266 226 166 228 194 291 106 69 257 265 228 242 279 267 231 235 229 266 225 191 181 175 174 172 167 162 156 160 154 149 158 156 156 152 139 138 143 139 132 126 121 117 114 112 110 104 102 99 98 94 93 92 94 100 102 100 100 102 106 107 102 96 91 88 85 85 83 77 69 60
174 85 246 126 215 199 220 221 159 212 167 207 220 207 256 270 56 272 286 333 286 109 356 89 164 259 288 284 247 257 273 307 265 257 301 252 183 176 171 165 164 168 170 165 156 159 160 159 158 151 149 146 139 136 130 127 125 123 116 115 113 113 112 110 105 102 99 94 97 103 106 108 109 105 102 97 97 94 93 91 89 86 83 80 73 69
231 221 192 170 185 103 218 284 352 349 166 189 35 288 314 270 275 287 264 278 325 339 114 265 281 244 297 149 29 286 352 315 278 280 290 302 1 91 107 133 150 165 171 155 158 160 160 158 152 149 146 142 139 135 133 135 134 129 124 126 125 122 120 116 111 110 106 105 103 104 102 102 102 101 97 97 100 103 101 93 92 88 86 87 83 76
233 300 57 350 34 194 194 64 295 229 155 118 270 344 229 220 8 261 27 312 323 335 278 177 231 280 234 359 224 251 277 269 227 208 213 212 157 133 156 175 179 174 165 164 158 152 148 146 144 139 138 136 137 140 139 142 141 138 133 133 129 125 123 119 117 112 110 106 104 98 98 96 97 102 104 104 103 99 96 95 95 96 94 95 93 83
48 232 72 120 199 182 23 270 193 276 228 131 178 209 37 354 124 108 139 85 207 202 241 137 277 251 266 263 352 24 218 201 153 159 187 184 165 171 184 184 181 173 164 166 165 163 156 148 148 145 143 141 141 148 152 151 148 144 140 136 131 126 123 122 119 114 110 110 106 100 98 102 104 108 110 110 107 102 97 96 98 98 99 97 91 90
267 75 127 184 166 101 6 282 299 268 291 182 217 98 115 276 327 266 281 142 251 260 273 107 258 294 20 307 83 51 250 202 205 177 187 184 172 191 196 187 183 177 169 168 164 157 157 158 154 147 145 149 154 151 150 149 146 147 145 142 136 136 131 128 122 117 116 115 108 107 106 104 105 108 109 109 106 103 103 104 105 107 100 92 94 92
271 238 143 304 25 112 155 233 228 166 253 308 347 350 277 181 194 90 270 252 249 253 284 250 290 260 225 264 316 270 204 217 204 185 180 196 197 203 196 190 181 167 160 165 167 162 162 163 162 160 156 151 148 150 151 149 150 146 140 138 136 133 131 128 123 117 115 115 113 114 114 114 112 112 110 106 104 104 104 104 103 100 101 101 98 96
264 266 132 176 134 37 236 216 234 152 158 188 253 214 89 280 310 179 215 353 36 285 340 278 89 280 177 224 230 273 235 225 186 185 207 204 199 197 194 188 183 182 180 177 176 175 171 170 168 164 161 160 159 156 154 153 153 148 140 137 131 124 125 124 121 121 119 118 120 121 120 115 116 116 113 112 112 108 104 102 102 104 101 98 97 95
147 96 276 99 280 255 213 192 234 154 171 163 213 208 140 328 336 329 270 227 258 277 257 301 302 257 199 201 206 237 250 224 195 203 205 203 201 201 197 186 184 183 182 183 179 176 172 170 166 162 159 155 152 151 153 157 156 149 143 139 140 137 134 129 126 126 125 126 125 127 125 123 122 117 114 111 109 105 103 102 100 98 100 100 94 94
175 185 252 123 183 232 217 18 1 353 344 245 188 198 189 153 178 197 232 84 320 224 234 201 264 275 233 146 207 232 267 254 240 234 218 204 202 199 196 194 184 182 189 183 180 173 169 169 166 161 156 155 157 159 161 157 153 154 151 148 143 138 136 135 135 135 133 131 132 132 131 128 125 120 116 113 107 104 105 104 101 106 108 99 92 89
303 76 139 217 215 199 37 68 8 356 320 323 296 263 224 226 293 209 256 185 88 212 26 313 335 273 84 146 209 250 272 269 283 275 249 223 213 205 201 192 191 190 184 184 178 173 174 173 170 168 168 169 170 165 160 159 162 159 153 149 149 144 142 142 139 138 138 138 138 136 132 130 126 124 120 114 109 108 108 106 110 114 111 103 97 88
174 218 217 265 83 72 161 218 191 260 274 250 219 233 186 202 214 272 323 108 193 118 207 209 229 266 97 90 260 270 272 282 267 246 249 249 227 213 201 194 193 188 190 180 174 175 175 170 167 167 173 174 173 170 168 165 161 157 156 155 151 148 145 143 144 144 143 142 140 138 136 132 130 127 123 116 113 116 116 116 116 115 109 104 101 97
204 212 228 304 287 192 174 173 185 167 236 245 240 179 235 47 77 107 105 77 275 199 197 169 254 266 108 14 246 245 256 261 254 228 210 241 241 223 208 202 197 190 183 186 187 184 174 176 181 182 178 178 173 170 168 167 164 161 161 159 156 150 150 146 146 146 146 145 141 141 138 136 134 129 123 118 120 121 120 121 120 113 108 109 105 99
250 197 170 210 225 250 230 249 206 188 199 187 224 165 215 190 151 152 222 174 236 183 163 222 247 255 89 247 252 239 248 271 253 240 217 227 245 225 210 209 202 195 195 190 181 180 190 190 184 181 182 178 176 172 169 168 166 164 162 164 158 155 151 149 148 148 147 147 145 143 141 139 135 128 124 124 125 125 123 123 120 114 107 107 105 98
190 43 247 237 244 249 282 69 328 89 97 203 187 196 192 211 239 270 46 174 221 147 203 227 229 296 290 244 215 231 217 242 260 224 227 224 221 226 227 211 204 205 198 191 189 189 178 183 193 191 184 180 174 173 173 171 169 166 164 161 160 156 150 148 149 150 150 151 148 144 145 142 137 131 130 131 130 127 126 124 121 116 113 110 105 103
109 243 226 231 247 257 74 245 160 224 216 207 166 214 196 184 192 188 191 217 121 125 255 237 216 253 263 273 240 233 221 225 249 262 257 252 238 214 212 212 209 208 202 193 190 188 193 196 193 190 186 179 178 174 174 173 169 165 164 161 159 157 153 150 152 153 153 152 150 148 146 142 135 132 132 131 130 129 127 126 121 115 114 112 106 104
220 229 260 158 254 265 265 225 132 201 243 262 231 222 192 198 181 199 221 216 156 211 241 263 155 215 253 257 269 221 206 234 248 254 259 270 273 213 191 199 207 209 203 200 204 199 196 196 195 190 184 182 175 175 171 167 166 163 161 162 161 159 158 153 151 154 156 155 154 150 145 138 130 129 130 131 131 131 130 126 121 119 117 112 106 104
174 253 142 230 295 281 205 137 160 218 240 263 243 238 226 180 201 206 223 209 205 232 246 262 243 255 264 272 270 189 158 231 254 271 284 269 243 203 209 210 210 209 205 205 203 202 202 200 191 186 181 178 179 175 173 172 171 170 165 166 163 162 160 156 157 158 159 158 152 145 141 133 129 130 132 133 134 133 132 128 124 119 115 111 106 106
195 275 104 164 299 262 56 67 142 237 243 255 254 246 233 211 216 221 238 237 243 272 269 259 283 282 270 260 262 310 229 212 254 247 249 254 258 237 220 223 217 212 212 212 212 208 204 198 189 183 182 183 181 180 176 175 171 168 168 166 166 164 162 160 157 158 156 150 144 140 137 135 134 135 137 137 134 135 133 127 123 117 112 108 107 109
226 270 70 72 287 276 30 65 140 168 242 254 275 262 229 195 221 220 211 214 194 228 229 260 270 253 260 265 323 263 252 220 233 241 247 250 251 246 238 235 222 218 214 213 210 204 199 198 191 190 190 185 183 179 175 172 170 168 172 168 166 161 158 157 156 153 150 145 145 145 145 142 140 140 139 139 137 135 132 128 125 122 117 115 114 111
194 178 176 171 218 255 261 282 230 171 203 278 251 237 212 206 212 197 233 191 208 211 214 223 236 231 245 278 292 242 194 214 231 240 246 249 248 242 238 235 231 222 217 209 204 201 201 200 197 195 191 184 183 181 180 170 167 173 168 164 161 153 159 159 158 154 151 152 152 152 148 147 145 143 142 140 137 134 132 130 128 124 122 118 114 114
140 197 171 182 238 257 317 327 281 250 238 235 311 100 180 200 200 213 224 212 220 177 218 219 243 267 265 219 219 256 235 203 228 243 234 249 258 246 239 243 243 235 221 213 208 203 204 198 194 193 191 186 182 177 169 170 168 164 159 156 154 159 162 161 160 158 155 154 155 153 152 150 148 146 142 140 138 137 137 135 133 127 123 123 125 122
169 175 177 161 229 259 90 289 292 240 239 261 23 329 350 334 199 207 235 223 218 213 240 265 260 257 252 245 249 268 311 334 207 268 266 237 231 252 254 247 240 237 226 213 211 209 202 196 188 182 180 181 177 169 163 167 165 154 155 158 158 164 162 164 159 159 157 156 156 155 153 151 149 145 142 142 141 142 141 139 134 134 133 135 137 138
166 166 134 204 196 49 283 137 250 227 330 313 261 161 152 57 90 10 275 242 239 219 221 237 243 247 257 264 268 41 355 342 308 255 249 259 220 234 241 245 246 232 225 216 209 207 200 192 191 187 187 171 162 168 169 168 161 157 160 161 163 163 165 162 160 158 157 156 157 156 154 151 148 145 145 146 146 146 144 141 140 138 137 137 133 133
175 93 190 201 152 233 224 215 246 338 312 283 283 212 166 215 175 179 262 257 191 217 215 231 246 253 258 264 270 3 69 338 287 287 259 238 236 220 226 239 242 242 235 234 209 213 202 196 192 183 158 158 167 164 171 164 161 160 158 164 168 164 163 162 161 161 159 156 155 153 151 149 146 147 149 150 147 145 143 140 139 139 145 145 143 144
262 200 184 195 230 188 246 273 278 279 260 238 240 12 274 335 165 191 240 277 187 235 211 220 238 244 250 256 236 113 139 265 267 255 265 242 203 225 227 240 259 275 281 281 264 245 198 158 113 121 152 158 165 167 164 161 161 160 162 165 164 163 163 165 164 160 156 154 151 148 146 145 147 148 150 150 147 142 138 137 135 140 144 146 142 136
31 51 112 206 220 122 186 218 216 224 239 204 207 200 212 167 163 183 154 277 208 221 208 194 225 236 226 229 158 137 177 247 253 220 214 219 192 221 242 244 244 252 253 246 230 213 184 170 160 155 155 161 169 171 163 160 161 160 165 164 164 165 163 166 160 156 154 148 143 141 137 140 143 147 147 143 140 139 140 141 139 132 131 130 128 126
118 174 151 218 212 215 192 235 248 201 233 221 203 202 182 167 162 145 303 284 241 205 172 169 209 214 222 195 136 181 177 261 283 294 140 78 292 257 235 261 238 223 223 206 212 189 150 133 133 155 171 176 174 158 158 161 164 167 164 163 162 163 165 160 151 145 138 135 135 133 133 133 137 140 142 141 137 136 134 130 134 135 130 130 126 125
176 192 205 222 213 199 200 254 292 271 239 257 213 157 127 185 177 150 231 253 145 160 175 180 205 201 169 151 168 187 217 222 268 68 158 198 255 230 219 248 252 227 200 173 163 138 140 156 167 173 173 168 160 158 160 163 164 166 162 157 160 163 154 142 136 136 135 134 133 132 132 132 136 136 136 138 135 129 127 128 132 131 134 131 121 111
3 90 330 49 220 214 221 237 252 284 219 204 42 130 171 146 197 218 244 54 142 173 195 194 199 200 174 184 188 221 237 229 290 127 187 192 224 266 238 201 175 165 159 157 148 152 145 151 157 155 154 156 154 157 161 162 164 158 153 155 158 150 135 132 135 135 135 136 135 134 131 131 130 129 131 131 132 131 121 113 113 119 123 122 113 108
177 160 195 185 193 29 346 237 292 271 195 175 115 78 259 200 240 168 183 274 52 166 151 206 219 211 181 222 222 228 244 259 262 253 223 197 202 221 206 195 191 179 169 160 164 168 154 158 165 164 158 151 154 157 163 161 158 152 152 156 149 136 135 136 137 137 135 134 133 132 132 131 129 124 122 125 126 125 122 118 114 116 117 118 116 118
170 173 181 227 190 177 185 192 214 213 76 153 150 182 193 218 207 168 182 201 133 153 173 182 223 215 203 214 214 230 247 274 285 248 231 223 207 210 209 204 199 180 172 174 169 169 161 160 162 157 154 152 157 162 164 167 158 154 155 148 137 136 136 137 138 137 132 130 129 126 121 119 117 116 116 122 124 123 127 128 128 125 124 122 125 128
185 201 165 193 182 189 207 219 196 145 195 191 192 211 205 209 217 178 76 18 151 231 210 230 224 212 213 221 250 255 259 227 238 238 215 225 195 201 200 199 193 187 177 172 171 163 162 166 161 154 153 159 161 162 165 169 159 146 144 142 140 141 141 138 135 130 128 127 125 122 121 119 120 121 126 129 134 135 129 127 124 114 115 104 114 134
37 207 64 259 231 273 287 238 52 242 162 241 247 244 242 234 261 286 266 265 229 230 187 217 243 247 187 197 221 238 226 238 246 231 225 228 206 205 193 190 190 181 174 166 166 163 163 160 156 154 158 161 162 159 158 153 144 137 139 140 141 140 139 132 124 121 122 122 123 125 125 122 119 117 118 116 108 104 106 113 121 130 143 132 151 155
216 131 163 232 307 63 260 177 190 231 177 206 227 234 248 257 235 205 263 236 245 239 236 240 248 263 218 182 214 240 258 252 232 247 236 226 209 198 191 192 191 181 178 178 174 160 167 160 161 164 162 160 158 147 133 129 136 135 138 142 137 126 117 115 118 118 119 124 126 126 130 129 132 129 124 115 114 113 113 120 131 147 152 153 146 160
263 169 200 229 228 212 252 194 208 239 246 234 233 231 235 246 253 249 240 254 262 253 239 250 240 247 201 223 225 235 252 257 242 252 245 218 210 191 195 194 186 179 185 177 170 169 170 170 171 165 160 156 151 139 130 124 127 131 126 119 116 119 118 117 123 127 129 128 126 130 130 127 127 129 129 130 126 130 134 142 152 150 167 159 165 166
139 125 217 172 210 243 261 268 246 271 276 263 218 185 240 241 244 253 252 250 255 262 263 254 213 228 217 229 231 230 249 254 241 243 255 238 200 204 197 191 185 180 175 177 177 170 176 171 169 163 153 147 139 131 122 118 114 114 119 122 125 128 125 124 121 119 121 120 119 119 124 132 135 136 134 138 132 144 153 156 164 164 181 176 164 177
117 211 175 101 234 246 244 243 220 236 257 260 250 207 222 230 233 242 255 260 255 256 255 260 258 224 220 237 228 228 242 253 252 232 241 240 215 200 183 181 176 173 178 176 165 168 170 168 148 144 136 138 133 123 120 119 117 116 119 125 127 126 123 122 117 119 123 125 128 135 141 143 141 133 130 141 143 149 113 164 166 186 175 210 217 184
202 213 147 210 225 248 246 251 228 238 260 268 283 199 215 237 237 234 239 244 252 256 272 282 285 282 236 224 222 226 240 247 254 228 240 239 222 189 177 172 168 172 174 169 161 173 170 160 152 150 132 134 125 122 120 117 116 111 111 117 123 122 120 121 118 121 133 141 151 152 144 141 142 142 139 145 146 149 162 184 181 195 186 167 189 219